Back to catalog

STARLINK-5171

AliveCommunicationsVLEO
NORAD 54077·PAYLOAD·🇺🇸 United States

Launched Oct 20, 2022 from Cape Canaveral Space Force Station

Loading…

Next Passes (next 24 hours)

TLE

FreshSource: CelesTrak SupGP

Epoch: Sep 14, 2026, 21:07 UTC

1 54077C 22136AC  26257.88034722 -.00034150  00000+0 -21416-2 0  2570
2 54077  53.1591 189.8174 0001487  96.3359  91.2831 15.08852246    18

Track STARLINK-5171 in real time with AllMySat

Download on the App Store